QPF
0.00 0.00 0.00 0.00 0.00 0.00 0.00 0.00 0.02 0.04 0.02 0.02 0.08 0.16 0.24 0.22 0.16 0.12 0.11 0.10 0.13 0.11 0.08 0.07 0.06 0.04 0.04 0.03 0.03 0.03 0.04 0.04 0.05 0.06 0.07 0.07 0.06 0.05 0.05 0.03 0.03 0.03 0.03 0.02
0.00 0.00 0.00 0.00 0.00 0.00 0.00 0.01 0.05 0.06 0.02 0.02 0.06 0.10 0.16 0.17 0.09 0.08 0.07 0.08 0.07 0.05 0.04 0.03 0.03 0.03 0.02 0.02 0.02 0.02 0.03 0.03 0.03 0.04 0.04 0.04 0.03 0.02 0.02 0.01 0.01 0.01 0.01 0.01
0.00 0.00 0.00 0.00 0.00 0.00 0.01 0.01 0.03 0.04 0.01 0.04 0.08 0.13 0.11 0.09 0.06 0.05 0.04 0.04 0.04 0.03 0.02 0.01 0.01 0.01 0.01 0.01 0.01 0.01 0.02 0.02 0.02 0.02 0.02 0.03 0.02 0.02 0.02 0.01 0.02 0.01 0.00 0.01
0.00 0.00 0.00 0.00 0.00 0.00 0.01 0.00 0.00 0.01 0.02 0.09 0.09 0.18 0.14 0.06 0.04 0.03 0.03 0.04 0.05 0.03 0.01 0.02 0.02 0.01 0.00 0.00 0.01 0.01 0.01 0.01 0.01 0.01 0.02 0.02 0.02 0.02 0.02 0.02 0.02 0.02 0.01 0.00
0.01 0.00 0.00 0.00 0.00 0.00 0.00 0.00 0.00 0.00 0.01 0.06 0.03 0.09 0.10 0.07 0.03 0.03 0.04 0.04 0.02 0.03 0.04 0.05 0.03 0.00 0.00 0.00 0.01 0.01 0.01 0.01 0.01 0.01 0.02 0.02 0.02 0.02 0.02 0.01 0.02 0.01 0.01 0.01
0.00 0.00 0.00 0.00 0.00 0.00 0.00 0.01 0.04 0.05 0.10 0.13 0.04 0.04 0.05 0.05 0.04 0.02 0.03 0.04 0.02 0.02 0.05 0.05 0.02 0.00 0.00 0.01 0.01 0.01 0.02 0.03 0.01 0.01 0.02 0.02 0.02 0.02 0.01 0.01 0.02 0.01 0.01 0.01
0.01 0.01 0.01 0.00 0.00 0.00 0.00 0.04 0.17 0.19 0.24 0.17 0.03 0.01 0.01 0.00 0.01 0.01 0.03 0.04 0.03 0.03 0.02 0.01 0.00 0.00 0.00 0.01 0.01 0.01 0.02 0.03 0.02 0.01 0.01 0.01 0.02 0.02 0.01 0.01 0.01 0.01 0.01 0.01
0.01 0.03 0.03 0.02 0.01 0.00 0.00 0.02 0.09 0.11 0.13 0.10 0.03 0.01 0.00 0.00 0.00 0.00 0.01 0.03 0.04 0.02 0.01 0.00 0.00 0.00 0.00 0.00 0.00 0.00 0.01 0.02 0.02 0.01 0.01 0.01 0.01 0.01 0.00 0.00 0.00 0.00 0.00 0.00
0.01 0.04 0.02 0.01 0.00 0.00 0.00 0.00 0.01 0.01 0.04 0.08 0.03 0.01 0.00 0.00 0.00 0.00 0.00 0.01 0.01 0.00 0.00 0.00 0.00 0.00 0.00 0.00 0.00 0.00 0.01 0.01 0.01 0.00 0.00 0.00 0.00 0.00 0.00 0.00 0.01 0.01 0.01 0.00
0.00 0.01 0.01 0.00 0.00 0.00 0.00 0.00 0.00 0.00 0.02 0.05 0.05 0.02 0.00 0.00 0.00 0.00 0.00 0.00 0.00 0.00 0.00 0.00 0.00 0.00 0.00 0.00 0.00 0.00 0.00 0.00 0.00 0.00 0.00 0.00 0.00 0.00 0.00 0.01 0.01 0.01 0.01 0.01
0.00 0.00 0.01 0.01 0.00 0.01 0.01 0.01 0.00 0.00 0.00 0.02 0.09 0.05 0.01 0.00 0.00 0.00 0.00 0.00 0.00 0.00 0.00 0.00 0.00 0.00 0.00 0.00 0.00 0.00 0.00 0.00 0.00 0.00 0.00 0.00 0.00 0.00 0.00 0.01 0.01 0.01 0.01 0.01
0.00 0.00 0.00 0.01 0.01 0.01 0.00 0.00 0.00 0.00 0.00 0.00 0.01 0.02 0.00 0.00 0.00 0.00 0.00 0.00 0.00 0.00 0.00 0.00 0.00 0.00 0.00 0.00 0.00 0.00 0.00 0.00 0.00 0.00 0.00 0.00 0.00 0.00 0.01 0.01 0.01 0.01 0.01 0.01
0.00 0.00 0.01 0.06 0.07 0.05 0.02 0.00 0.00 0.00 0.00 0.00 0.01 0.02 0.01 0.00 0.00 0.00 0.00 0.00 0.00 0.00 0.00 0.00 0.00 0.00 0.00 0.00 0.00 0.00 0.00 0.00 0.00 0.00 0.00 0.00 0.00 0.00 0.01 0.01 0.01 0.01 0.01 0.01
0.00 0.00 0.01 0.06 0.07 0.05 0.03 0.02 0.01 0.00 0.00 0.01 0.02 0.02 0.01 0.00 0.00 0.00 0.00 0.00 0.00 0.00 0.00 0.00 0.00 0.00 0.00 0.00 0.00 0.00 0.00 0.00 0.00 0.00 0.00 0.00 0.00 0.00 0.00 0.00 0.01 0.01 0.01 0.01
0.00 0.00 0.00 0.00 0.01 0.01 0.00 0.01 0.00 0.00 0.00 0.00 0.02 0.02 0.01 0.00 0.00 0.00 0.00 0.00 0.00 0.00 0.00 0.00 0.00 0.00 0.00 0.00 0.00 0.00 0.00 0.00 0.00 0.00 0.00 0.00 0.00 0.00 0.00 0.00 0.01 0.01 0.01 0.01
0.00 0.00 0.00 0.00 0.00 0.00 0.00 0.00 0.00 0.00 0.00 0.00 0.01 0.01 0.00 0.00 0.00 0.00 0.00 0.00 0.00 0.00 0.00 0.00 0.00 0.00 0.00 0.00 0.00 0.00 0.00 0.00 0.00 0.00 0.00 0.00 0.00 0.00 0.00 0.00 0.01 0.01 0.02 0.02
0.00 0.00 0.00 0.00 0.01 0.00 0.00 0.00 0.00 0.00 0.00 0.00 0.01 0.00 0.00 0.00 0.00 0.00 0.00 0.00 0.00 0.00 0.00 0.00 0.00 0.00 0.00 0.00 0.00 0.00 0.00 0.00 0.00 0.00 0.00 0.00 0.00 0.00 0.00 0.00 0.01 0.02 0.02 0.02
0.01 0.00 0.00 0.00 0.00 0.00 0.00 0.00 0.00 0.00 0.00 0.00 0.00 0.00 0.00 0.00 0.00 0.00 0.00 0.00 0.00 0.00 0.00 0.00 0.00 0.00 0.00 0.00 0.00 0.00 0.00 0.00 0.00 0.00 0.00 0.00 0.00 0.00 0.00 0.00 0.01 0.02 0.02 0.02
0.00 0.01 0.00 0.00 0.00 0.01 0.01 0.01 0.01 0.00 0.00 0.00 0.00 0.00 0.00 0.00 0.00 0.00 0.00 0.00 0.00 0.00 0.00 0.00 0.00 0.00 0.00 0.00 0.00 0.00 0.00 0.00 0.00 0.00 0.00 0.00 0.00 0.00 0.00 0.00 0.02 0.02 0.02 0.02
0.02 0.01 0.00 0.00 0.01 0.02 0.02 0.03 0.02 0.01 0.01 0.01 0.00 0.00 0.01 0.01 0.01 0.00 0.00 0.00 0.00 0.00 0.00 0.00 0.00 0.00 0.00 0.00 0.00 0.00 0.00 0.00 0.00 0.00 0.00 0.00 0.00 0.00 0.00 0.01 0.02 0.02 0.02 0.02
0.03 0.01 0.01 0.01 0.02 0.01 0.02 0.03 0.02 0.04 0.05 0.04 0.01 0.01 0.01 0.02 0.02 0.01 0.00 0.00 0.00 0.01 0.00 0.00 0.00 0.00 0.00 0.00 0.00 0.00 0.00 0.00 0.00 0.00 0.00 0.00 0.00 0.00 0.01 0.01 0.02 0.02 0.03 0.04
0.02 0.02 0.01 0.02 0.04 0.04 0.05 0.06 0.09 0.09 0.05 0.02 0.01 0.01 0.03 0.03 0.02 0.01 0.01 0.00 0.00 0.00 0.00 0.00 0.00 0.00 0.00 0.00 0.00 0.00 0.00 0.00 0.00 0.00 0.00 0.00 0.00 0.00 0.00 0.02 0.02 0.03 0.05 0.05
0.02 0.01 0.01 0.03 0.05 0.05 0.08 0.10 0.13 0.15 0.12 0.05 0.02 0.01 0.02 0.02 0.01 0.00 0.00 0.00 0.00 0.00 0.00 0.00 0.01 0.00 0.00 0.00 0.00 0.00 0.00 0.00 0.00 0.00 0.00 0.00 0.00 0.01 0.02 0.02 0.03 0.03 0.06 0.06
0.02 0.01 0.01 0.01 0.04 0.06 0.12 0.11 0.06 0.04 0.04 0.02 0.00 0.00 0.00 0.00 0.00 0.00 0.00 0.00 0.00 0.00 0.00 0.00 0.00 0.00 0.00 0.00 0.00 0.00 0.00 0.00 0.00 0.00 0.00 0.00 0.01 0.01 0.02 0.03 0.02 0.02 0.03 0.03
0.01 0.01 0.03 0.03 0.03 0.04 0.08 0.10 0.04 0.01 0.00 0.00 0.00 0.00 0.00 0.00 0.00 0.00 0.00 0.00 0.00 0.00 0.00 0.00 0.00 0.00 0.00 0.00 0.00 0.00 0.00 0.00 0.01 0.01 0.01 0.01 0.01 0.01 0.02 0.02 0.02 0.01 0.01 0.01
0.00 0.00 0.01 0.04 0.03 0.02 0.03 0.03 0.02 0.00 0.00 0.00 0.00 0.00 0.00 0.00 0.00 0.01 0.00 0.00 0.00 0.00 0.00 0.00 0.00 0.00 0.00 0.00 0.00 0.00 0.00 0.00 0.01 0.01 0.02 0.01 0.00 0.00 0.01 0.01 0.02 0.01 0.01 0.00
MSLP
1008.09 1008.39 1008.55 1008.64 1008.73 1008.91 1009.23 1009.71 1010.32 1010.96 1011.56 1012.00 1012.21 1012.16 1011.86 1011.37 1010.79 1010.23 1009.79 1009.54 1009.50 1009.67 1009.99 1010.40 1010.83 1011.23 1011.57 1011.85 1012.09 1012.33 1012.58 1012.86 1013.17 1013.48 1013.75 1013.97 1014.09 1014.12 1014.07 1013.98 1013.90 1013.86 1013.92 1014.08
1008.34 1008.59 1008.70 1008.73 1008.80 1008.98 1009.33 1009.86 1010.53 1011.23 1011.87 1012.32 1012.52 1012.42 1012.06 1011.51 1010.89 1010.31 1009.89 1009.69 1009.73 1009.97 1010.36 1010.81 1011.24 1011.59 1011.86 1012.05 1012.19 1012.33 1012.52 1012.77 1013.09 1013.43 1013.76 1014.02 1014.19 1014.23 1014.17 1014.04 1013.91 1013.81 1013.81 1013.93
1008.52 1008.72 1008.78 1008.79 1008.84 1009.05 1009.45 1010.05 1010.78 1011.55 1012.23 1012.69 1012.87 1012.73 1012.31 1011.69 1011.02 1010.42 1010.00 1009.83 1009.90 1010.20 1010.62 1011.09 1011.51 1011.83 1012.03 1012.14 1012.20 1012.28 1012.42 1012.66 1012.99 1013.37 1013.75 1014.08 1014.29 1014.36 1014.31 1014.17 1014.00 1013.87 1013.82 1013.89
1008.63 1008.78 1008.80 1008.80 1008.87 1009.13 1009.60 1010.28 1011.10 1011.93 1012.64 1013.11 1013.26 1013.07 1012.59 1011.91 1011.18 1010.53 1010.08 1009.90 1009.99 1010.30 1010.74 1011.21 1011.62 1011.92 1012.08 1012.14 1012.15 1012.19 1012.32 1012.56 1012.91 1013.33 1013.77 1014.14 1014.41 1014.52 1014.50 1014.37 1014.19 1014.03 1013.96 1013.99
1008.67 1008.77 1008.77 1008.77 1008.89 1009.21 1009.77 1010.54 1011.44 1012.33 1013.07 1013.54 1013.66 1013.42 1012.86 1012.10 1011.29 1010.58 1010.09 1009.87 1009.93 1010.23 1010.67 1011.15 1011.56 1011.85 1012.01 1012.06 1012.07 1012.11 1012.24 1012.49 1012.87 1013.33 1013.81 1014.23 1014.54 1014.70 1014.71 1014.60 1014.43 1014.27 1014.17 1014.16
1008.68 1008.73 1008.71 1008.73 1008.89 1009.28 1009.92 1010.77 1011.74 1012.67 1013.43 1013.90 1013.98 1013.68 1013.05 1012.20 1011.31 1010.52 1009.95 1009.68 1009.71 1009.98 1010.41 1010.89 1011.32 1011.64 1011.84 1011.92 1011.97 1012.04 1012.20 1012.48 1012.88 1013.37 1013.88 1014.33 1014.68 1014.87 1014.91 1014.83 1014.67 1014.51 1014.39 1014.36
1008.69 1008.68 1008.64 1008.67 1008.87 1009.32 1010.02 1010.92 1011.92 1012.88 1013.64 1014.07 1014.11 1013.75 1013.05 1012.14 1011.17 1010.30 1009.67 1009.33 1009.32 1009.56 1009.99 1010.49 1010.96 1011.34 1011.60 1011.76 1011.87 1012.00 1012.21 1012.53 1012.95 1013.44 1013.95 1014.42 1014.77 1014.98 1015.04 1014.98 1014.84 1014.68 1014.55 1014.49
1008.71 1008.64 1008.57 1008.60 1008.82 1009.28 1010.00 1010.92 1011.92 1012.86 1013.59 1013.99 1013.98 1013.58 1012.83 1011.86 1010.85 1009.93 1009.24 1008.87 1008.81 1009.04 1009.48 1010.01 1010.53 1010.99 1011.34 1011.60 1011.81 1012.01 1012.27 1012.61 1013.04 1013.52 1014.01 1014.45 1014.79 1015.00 1015.06 1015.01 1014.88 1014.72 1014.59 1014.51
1008.73 1008.61 1008.50 1008.51 1008.71 1009.16 1009.85 1010.73 1011.69 1012.57 1013.25 1013.60 1013.56 1013.13 1012.36 1011.39 1010.36 1009.44 1008.74 1008.34 1008.28 1008.51 1008.96 1009.53 1010.12 1010.66 1011.12 1011.48 1011.78 1012.07 1012.37 1012.73 1013.14 1013.59 1014.03 1014.42 1014.71 1014.89 1014.93 1014.88 1014.76 1014.61 1014.47 1014.38
1008.74 1008.57 1008.42 1008.39 1008.55 1008.94 1009.56 1010.35 1011.21 1012.01 1012.61 1012.91 1012.85 1012.42 1011.68 1010.75 1009.77 1008.89 1008.22 1007.85 1007.80 1008.05 1008.52 1009.13 1009.79 1010.41 1010.96 1011.42 1011.80 1012.15 1012.49 1012.84 1013.22 1013.61 1013.98 1014.30 1014.53 1014.66 1014.68 1014.61 1014.48 1014.34 1014.21 1014.11
1008.70 1008.50 1008.32 1008.25 1008.34 1008.64 1009.15 1009.82 1010.55 1011.23 1011.74 1011.99 1011.91 1011.51 1010.85 1010.01 1009.14 1008.35 1007.77 1007.47 1007.47 1007.74 1008.24 1008.89 1009.59 1010.27 1010.88 1011.41 1011.86 1012.24 1012.59 1012.93 1013.26 1013.58 1013.87 1014.11 1014.27 1014.34 1014.32 1014.24 1014.11 1013.97 1013.85 1013.76
1008.60 1008.40 1008.21 1008.09 1008.12 1008.32 1008.69 1009.21 1009.79 1010.33 1010.73 1010.92 1010.85 1010.51 1009.95 1009.25 1008.52 1007.89 1007.43 1007.23 1007.29 1007.61 1008.14 1008.80 1009.52 1010.22 1010.87 1011.43 1011.91 1012.31 1012.66 1012.96 1013.24 1013.49 1013.70 1013.86 1013.95 1013.97 1013.93 1013.83 1013.71 1013.58 1013.46 1013.38
1008.45 1008.27 1008.09 1007.96 1007.92 1008.02 1008.26 1008.62 1009.02 1009.41 1009.70 1009.83 1009.75 1009.48 1009.04 1008.50 1007.96 1007.50 1007.20 1007.12 1007.26 1007.63 1008.17 1008.83 1009.55 1010.25 1010.89 1011.45 1011.93 1012.32 1012.65 1012.92 1013.14 1013.33 1013.48 1013.57 1013.62 1013.61 1013.55 1013.45 1013.34 1013.22 1013.12 1013.05
1008.26 1008.14 1008.00 1007.88 1007.81 1007.83 1007.94 1008.13 1008.36 1008.58 1008.74 1008.80 1008.72 1008.50 1008.18 1007.81 1007.45 1007.17 1007.04 1007.08 1007.31 1007.72 1008.27 1008.92 1009.60 1010.27 1010.88 1011.42 1011.88 1012.25 1012.55 1012.78 1012.97 1013.12 1013.22 1013.28 1013.30 1013.27 1013.22 1013.13 1013.04 1012.94 1012.86 1012.79
1008.07 1008.04 1007.97 1007.88 1007.81 1007.77 1007.77 1007.81 1007.87 1007.93 1007.95 1007.90 1007.79 1007.61 1007.39 1007.16 1006.96 1006.86 1006.88 1007.04 1007.35 1007.80 1008.35 1008.97 1009.61 1010.23 1010.80 1011.30 1011.72 1012.07 1012.34 1012.56 1012.73 1012.85 1012.94 1012.99 1013.00 1012.99 1012.94 1012.88 1012.81 1012.74 1012.67 1012.60
1007.91 1007.99 1008.02 1008.00 1007.94 1007.87 1007.78 1007.69 1007.59 1007.47 1007.34 1007.18 1007.01 1006.83 1006.66 1006.53 1006.47 1006.50 1006.65 1006.91 1007.29 1007.77 1008.32 1008.91 1009.50 1010.07 1010.59 1011.05 1011.45 1011.78 1012.04 1012.26 1012.42 1012.55 1012.64 1012.70 1012.73 1012.74 1012.72 1012.68 1012.63 1012.58 1012.51 1012.44
1007.81 1008.00 1008.13 1008.19 1008.18 1008.10 1007.95 1007.74 1007.49 1007.22 1006.92 1006.64 1006.38 1006.15 1006.00 1005.92 1005.95 1006.07 1006.31 1006.65 1007.08 1007.58 1008.12 1008.68 1009.24 1009.77 1010.25 1010.69 1011.07 1011.40 1011.67 1011.90 1012.08 1012.23 1012.34 1012.42 1012.47 1012.50 1012.50 1012.48 1012.45 1012.40 1012.33 1012.25
1007.77 1008.06 1008.29 1008.44 1008.48 1008.40 1008.21 1007.92 1007.54 1007.11 1006.67 1006.25 1005.87 1005.58 1005.39 1005.33 1005.38 1005.56 1005.85 1006.24 1006.70 1007.21 1007.74 1008.29 1008.82 1009.32 1009.79 1010.22 1010.60 1010.94 1011.25 1011.50 1011.72 1011.89 1012.03 1012.13 1012.20 1012.24 1012.25 1012.24 1012.20 1012.14 1012.07 1011.97
1007.76 1008.12 1008.43 1008.65 1008.75 1008.69 1008.48 1008.12 1007.65 1007.10 1006.53 1005.98 1005.49 1005.11 1004.86 1004.77 1004.82 1005.00 1005.31 1005.71 1006.18 1006.68 1007.21 1007.74 1008.26 1008.76 1009.23 1009.67 1010.09 1010.46 1010.80 1011.10 1011.35 1011.56 1011.72 1011.83 1011.90 1011.94 1011.93 1011.90 1011.85 1011.77 1011.67 1011.54
1007.72 1008.13 1008.50 1008.77 1008.91 1008.88 1008.67 1008.28 1007.75 1007.12 1006.45 1005.79 1005.21 1004.75 1004.43 1004.28 1004.30 1004.46 1004.75 1005.13 1005.59 1006.08 1006.60 1007.12 1007.63 1008.14 1008.63 1009.10 1009.55 1009.98 1010.36 1010.71 1011.00 1011.23 1011.40 1011.51 1011.57 1011.57 1011.54 1011.47 1011.37 1011.26 1011.12 1010.98
1007.63 1008.04 1008.43 1008.74 1008.91 1008.90 1008.71 1008.32 1007.77 1007.11 1006.39 1005.68 1005.04 1004.51 1004.14 1003.93 1003.90 1004.01 1004.26 1004.60 1005.02 1005.48 1005.98 1006.48 1007.00 1007.52 1008.03 1008.54 1009.04 1009.51 1009.95 1010.33 1010.65 1010.90 1011.07 1011.16 1011.19 1011.15 1011.06 1010.94 1010.79 1010.63 1010.46 1010.30
1007.44 1007.83 1008.21 1008.52 1008.71 1008.73 1008.57 1008.22 1007.70 1007.05 1006.35 1005.64 1004.98 1004.43 1004.02 1003.77 1003.68 1003.74 1003.92 1004.21 1004.57 1004.99 1005.45 1005.93 1006.43 1006.95 1007.49 1008.03 1008.56 1009.08 1009.55 1009.96 1010.30 1010.55 1010.71 1010.78 1010.76 1010.66 1010.52 1010.33 1010.13 1009.93 1009.74 1009.56
1007.17 1007.50 1007.84 1008.13 1008.33 1008.39 1008.27 1007.99 1007.54 1006.97 1006.33 1005.67 1005.06 1004.52 1004.11 1003.83 1003.70 1003.70 1003.82 1004.04 1004.33 1004.68 1005.08 1005.52 1006.00 1006.51 1007.04 1007.59 1008.15 1008.68 1009.17 1009.60 1009.94 1010.18 1010.32 1010.34 1010.27 1010.13 1009.92 1009.69 1009.44 1009.20 1008.99 1008.81
1006.83 1007.09 1007.38 1007.64 1007.84 1007.93 1007.88 1007.69 1007.35 1006.89 1006.37 1005.81 1005.28 1004.80 1004.41 1004.14 1003.98 1003.94 1003.99 1004.13 1004.35 1004.62 1004.95 1005.33 1005.76 1006.23 1006.74 1007.27 1007.81 1008.34 1008.82 1009.24 1009.56 1009.77 1009.87 1009.86 1009.75 1009.55 1009.30 1009.02 1008.75 1008.49 1008.28 1008.11
1006.47 1006.67 1006.90 1007.14 1007.34 1007.46 1007.49 1007.39 1007.18 1006.87 1006.49 1006.07 1005.65 1005.27 1004.94 1004.70 1004.53 1004.46 1004.46 1004.53 1004.66 1004.85 1005.09 1005.39 1005.75 1006.15 1006.61 1007.09 1007.59 1008.07 1008.51 1008.88 1009.16 1009.32 1009.38 1009.32 1009.17 1008.94 1008.66 1008.36 1008.07 1007.82 1007.62 1007.48
1006.18 1006.32 1006.51 1006.72 1006.93 1007.09 1007.19 1007.20 1007.12 1006.96 1006.73 1006.46 1006.18 1005.91 1005.66 1005.46 1005.31 1005.22 1005.18 1005.19 1005.25 1005.36 1005.52 1005.73 1006.00 1006.32 1006.68 1007.08 1007.49 1007.88 1008.24 1008.53 1008.74 1008.84 1008.84 1008.73 1008.54 1008.29 1008.00 1007.70 1007.43 1007.20 1007.03 1006.92
Thickness
5816 5802 5794 5804 5812 5809 5806 5794 5781 5782 5795 5776 5758 5746 5747 5756 5759 5763 5766 5766 5764 5764 5767 5769 5769 5770 5767 5763 5760 5757 5754 5751 5748 5744 5741 5738 5737 5737 5736 5735 5732 5729 5725 5723
5807 5796 5811 5822 5820 5813 5804 5790 5780 5785 5794 5779 5758 5749 5754 5759 5762 5763 5765 5765 5763 5762 5762 5764 5765 5766 5762 5759 5757 5755 5751 5748 5745 5742 5739 5737 5734 5733 5734 5732 5728 5726 5722 5719
5805 5813 5826 5820 5811 5802 5798 5790 5784 5780 5784 5777 5755 5739 5745 5757 5763 5766 5768 5768 5767 5764 5760 5761 5762 5762 5761 5758 5755 5754 5748 5745 5742 5740 5737 5735 5732 5729 5727 5725 5724 5722 5719 5716
5813 5824 5820 5812 5807 5805 5791 5803 5795 5784 5770 5753 5753 5726 5738 5751 5756 5760 5764 5766 5766 5765 5763 5762 5761 5760 5759 5757 5755 5751 5747 5743 5740 5737 5733 5728 5724 5720 5720 5720 5719 5718 5715 5713
5808 5816 5813 5806 5809 5809 5801 5806 5793 5780 5764 5753 5755 5740 5738 5753 5751 5758 5762 5764 5766 5766 5764 5761 5761 5761 5760 5758 5754 5750 5745 5740 5737 5733 5730 5725 5721 5719 5718 5716 5714 5712 5711 5710
5817 5826 5821 5815 5821 5817 5812 5795 5778 5759 5741 5725 5751 5749 5740 5755 5758 5762 5765 5766 5767 5767 5765 5762 5762 5761 5758 5757 5754 5749 5742 5736 5733 5730 5727 5722 5717 5714 5711 5709 5707 5706 5706 5706
5799 5804 5809 5812 5803 5808 5800 5773 5738 5718 5706 5714 5760 5760 5756 5774 5779 5775 5769 5767 5769 5768 5764 5761 5759 5757 5755 5753 5750 5746 5739 5733 5731 5728 5724 5719 5715 5711 5708 5706 5704 5702 5700 5699
5778 5767 5784 5800 5797 5795 5796 5782 5748 5728 5724 5737 5763 5760 5771 5790 5791 5787 5779 5774 5769 5768 5767 5764 5762 5759 5756 5753 5749 5744 5738 5732 5728 5725 5721 5717 5713 5709 5707 5704 5700 5697 5694 5693
5782 5773 5797 5808 5815 5809 5793 5789 5794 5770 5759 5741 5752 5768 5775 5790 5786 5784 5779 5774 5768 5769 5768 5766 5765 5762 5758 5753 5747 5743 5736 5730 5726 5723 5719 5715 5711 5707 5703 5700 5697 5694 5691 5688
5804 5784 5801 5814 5816 5811 5805 5801 5793 5772 5749 5736 5734 5747 5758 5770 5775 5779 5778 5775 5773 5773 5772 5770 5766 5762 5758 5752 5747 5742 5735 5728 5724 5720 5717 5716 5710 5706 5702 5698 5693 5689 5685 5681
5817 5792 5794 5801 5790 5785 5789 5789 5788 5784 5777 5746 5718 5730 5774 5779 5783 5782 5781 5781 5780 5777 5774 5771 5766 5762 5756 5750 5745 5739 5733 5728 5723 5719 5715 5710 5707 5703 5699 5694 5691 5687 5682 5677
5811 5797 5780 5784 5798 5802 5798 5791 5787 5766 5764 5771 5754 5751 5795 5796 5795 5791 5787 5786 5784 5781 5776 5771 5766 5759 5753 5748 5743 5737 5733 5728 5724 5720 5715 5709 5705 5700 5695 5691 5687 5682 5677 5671
5804 5784 5762 5758 5760 5770 5776 5790 5793 5789 5780 5770 5754 5755 5793 5799 5798 5795 5791 5787 5784 5780 5775 5769 5763 5756 5750 5745 5740 5735 5731 5727 5724 5719 5713 5708 5702 5697 5692 5687 5682 5677 5671 5665
5804 5782 5765 5743 5744 5756 5764 5781 5790 5786 5770 5765 5760 5760 5777 5789 5790 5791 5790 5787 5783 5777 5772 5766 5758 5753 5747 5742 5737 5732 5728 5726 5722 5716 5710 5704 5699 5694 5689 5684 5678 5672 5666 5660
5796 5778 5778 5778 5783 5782 5782 5788 5792 5788 5785 5774 5771 5772 5778 5788 5791 5791 5790 5786 5780 5773 5767 5762 5755 5749 5744 5739 5734 5730 5726 5723 5718 5712 5706 5701 5697 5692 5686 5680 5674 5668 5661 5656
5788 5774 5774 5775 5788 5791 5789 5795 5795 5793 5793 5790 5786 5783 5795 5796 5796 5790 5787 5782 5775 5770 5766 5761 5755 5749 5742 5737 5732 5728 5724 5720 5715 5708 5703 5699 5694 5688 5682 5676 5670 5664 5657 5651
5781 5773 5763 5762 5779 5780 5772 5791 5794 5792 5798 5794 5781 5784 5794 5788 5787 5784 5783 5779 5774 5769 5766 5760 5755 5748 5742 5737 5732 5726 5722 5718 5712 5706 5701 5696 5690 5684 5678 5673 5666 5659 5652 5646
5777 5770 5763 5761 5762 5743 5779 5807 5804 5796 5796 5801 5798 5796 5795 5791 5791 5790 5786 5779 5773 5770 5766 5761 5755 5749 5743 5738 5732 5726 5722 5715 5709 5703 5698 5693 5687 5680 5674 5667 5660 5653 5647 5640
5785 5769 5759 5756 5750 5756 5779 5790 5789 5781 5782 5799 5796 5795 5794 5795 5788 5783 5785 5781 5775 5771 5767 5761 5756 5750 5744 5737 5732 5725 5718 5712 5706 5700 5695 5689 5683 5676 5668 5661 5655 5648 5642 5635
5777 5770 5758 5756 5745 5739 5762 5781 5789 5777 5761 5789 5791 5786 5784 5780 5761 5766 5780 5778 5774 5770 5764 5759 5755 5748 5740 5735 5729 5720 5713 5707 5701 5697 5691 5686 5679 5672 5664 5658 5651 5644 5638 5631
5742 5749 5750 5749 5745 5755 5768 5779 5777 5742 5742 5772 5782 5782 5778 5771 5767 5772 5776 5773 5769 5764 5759 5755 5750 5742 5736 5731 5724 5714 5708 5702 5699 5694 5688 5681 5675 5667 5661 5655 5648 5641 5634 5628
5743 5744 5745 5743 5729 5732 5760 5763 5748 5742 5758 5767 5775 5779 5775 5771 5771 5771 5768 5765 5760 5756 5753 5749 5741 5736 5732 5726 5717 5708 5702 5699 5695 5688 5681 5675 5669 5663 5658 5651 5644 5637 5630 5624
5761 5762 5757 5749 5737 5744 5747 5745 5748 5755 5756 5762 5765 5772 5771 5766 5765 5765 5762 5759 5756 5753 5749 5744 5736 5728 5724 5720 5712 5703 5699 5695 5688 5681 5675 5670 5664 5659 5653 5646 5640 5635 5629 5622
5761 5766 5758 5749 5744 5744 5743 5744 5751 5757 5755 5760 5766 5769 5767 5761 5760 5757 5753 5750 5747 5744 5740 5736 5730 5721 5715 5712 5707 5700 5695 5689 5682 5674 5668 5664 5658 5654 5650 5645 5640 5633 5627 5621
5758 5756 5747 5742 5743 5741 5739 5743 5747 5750 5755 5758 5759 5759 5757 5753 5749 5747 5742 5739 5737 5735 5731 5727 5721 5714 5709 5705 5700 5695 5690 5683 5675 5669 5663 5658 5654 5651 5647 5643 5638 5632 5627 5619
5757 5750 5742 5731 5739 5736 5730 5740 5744 5742 5743 5744 5743 5742 5742 5740 5737 5735 5731 5729 5726 5722 5719 5714 5710 5705 5701 5696 5692 5688 5684 5677 5669 5661 5656 5652 5649 5647 5644 5639 5635 5632 5624 5618